Overview Statistics Trail Chart Weather Telemetry Raw packets
 

This is the latest recevied weather packets stored in our database for station/object JE6MIQ-13. If no packets are shown the sender has not sent any weather packets the latest 10 day(s).

<< 2 3 4 5 6 7 8 >>
Time Temp. Humidity Pressure Rain* Wind** Luminosity Snow
1788530152 24.44° C 42% 1005.9 hPa 0 mm - - -
1788529252 24.44° C 44% 1005.8 hPa 0 mm - - -
1788528351 24.44° C 44% 1005.7 hPa 0 mm - - -
1788527453 25° C 43% 1005.8 hPa 0 mm - - -
1788526552 24.44° C 47% 1005.8 hPa 0 mm - - -
1788525652 24.44° C 50% 1006 hPa 0 mm - - -
1788524751 25° C 50% 1006.1 hPa 0 mm - - -
1788523852 25° C 52% 1005.9 hPa 0 mm - - -
1788522952 25° C 52% 1005.5 hPa 0 mm - - -
1788522052 25° C 53% 1005.3 hPa 0 mm - - -
1788521153 25° C 52% 1005.3 hPa 0 mm - - -
1788520252 25° C 56% 1005 hPa 0 mm - - -
1788519352 25° C 64% 1005.3 hPa 0 mm - - -
1788518452 24.44° C 68% 1005.3 hPa 0 mm - - -
1788517552 24.44° C 69% 1005 hPa 0 mm - - -
1788516652 24.44° C 69% 1004.6 hPa 0 mm - - -
1788515751 24.44° C 69% 1004.6 hPa 0 mm - - -
1788514851 24.44° C 69% 1004.7 hPa 0 mm - - -
1788513952 24.44° C 66% 1004.3 hPa 0 mm - - -
1788513052 24.44° C 67% 1004.1 hPa 0 mm - - -
1788512153 24.44° C 72% 1004.5 hPa 0 mm - - -
1788511252 23.89° C 76% 1004.6 hPa 0 mm - - -
1788510352 23.89° C 74% 1004.2 hPa 0 mm - - -
1788509452 23.89° C 72% 1004.3 hPa 0 mm - - -
1788508551 23.89° C 71% 1004.8 hPa 0 mm - - -

* Rain latest hour (hover to see other rain measurements)
** Current wind speed in m/s (hover to see current wind gust speed)